Location: Newark
(45.8667°N, 9.7333°E)
Time: 22:32:20
(UTC+00:00)

AO-73 - Visible Passes

Search period start: 21 February 2020 00:00
Search period end: 02 March 2020 00:00
Orbit: 583 x 662 km, 97.6° (Epoch: 21 February)

Date Brightness Start Highest point End Pass type
(mag) Time Alt. Az. Time Alt. Az. Time Alt. Az.
21 Feb ? 04:23:38 10° NE 04:26:21 15° E 04:29:03 10° SE visible
22 Feb ? 04:41:02 10° NE 04:44:40 23° E 04:48:16 10° SE visible
23 Feb ? 04:58:46 10° NNE 05:02:57 34° E 05:07:03 10° SSE visible
23 Feb ? 17:32:28 10° SSW 17:36:11 26° W 17:39:58 10° NW visible
24 Feb ? 05:16:41 10° NNE 05:21:09 52° E 05:25:33 10° S visible
24 Feb ? 17:51:29 10° SW 17:54:29 18° W 17:57:31 10° NW visible
25 Feb ? 05:34:44 10° NNE 05:39:19 80° ESE 05:43:50 10° S visible
25 Feb ? 18:11:18 10° WSW 18:12:50 12° W 18:14:23 10° WNW visible
26 Feb ? 04:18:26 10° ENE 04:20:45 14° E 04:23:04 10° ESE visible
27 Feb ? 04:35:40 10° NE 04:39:06 21° E 04:42:27 10° SE visible
28 Feb ? 04:53:20 10° NNE 04:57:22 30° E 05:01:19 10° SSE visible
29 Feb ? 05:11:13 10° NNE 05:15:36 46° E 05:19:53 10° S visible
29 Feb ? 17:45:36 10° SW 17:48:52 20° W 17:52:13 10° NW visible
01 Mar ? 18:05:04 10° WSW 18:07:13 13° W 18:09:23 10° WNW visible
